Regional Weather Roundup
Issued by NWS

Home | Current Version | Previous Version | Text Only | Print | Product List | Glossary On
Versions: 1 2 3 4 5 6 7 8 9 10 11 12 13 14 15 16 17 18 19 20 21 22 23 24 25 26 27 28 29 30 31 32 33 34 35 36 37 38 39 40 41 42 43 44 45 46 47 48 49 50
000
ASUS44 KBMX 271010
RWRAL

ALABAMA REGIONAL WEATHER ROUNDUP
NATIONAL WEATHER SERVICE BIRMINGHAM AL
500 AM CDT WED JUL 27 2016

NOTE: "FAIR" INDICATES FEW OR NO CLOUDS BELOW 12,000 FEET
WITH NO SIGNIFICANT WEATHER AND/OR OBSTRUCTIONS TO VISIBILITY.

THE REMARK "TC" DENOTES TEMPERATURE IN DEGREES CELSIUS.

ALZ001>011-014-016>018-020-271100-
NORTH ALABAMA

CITY           SKY/WX    TMP DP  RH WIND       PRES   REMARKS
MUSCLE SHOALS  CLOUDY    76  72  87 SE3       30.01R
HUNTSVILLE     CLEAR     77  70  79 S5        30.01R
DECATUR        CLEAR     75  73  93 S5        30.01R
HALEYVILLE     CLOUDY    75  73  93 S6        30.03R
GADSDEN        MOCLDY    77  74  90 SW3         N/A
$$

ALZ012-013-022-023-030>036-040>044-271100-
WEST CENTRAL ALABAMA

CITY           SKY/WX    TMP DP  RH WIND       PRES   REMARKS
TUSCALOOSA     CLOUDY    77  75  93 S3        29.98R
$$

ALZ015-024>027-033>036-040>044-271100-
CENTRAL ALABAMA

CITY           SKY/WX    TMP DP  RH WIND       PRES   REMARKS
BIRMINGHAM     CLOUDY    78  72  81 SW10      30.03R
MONTGOMERY     MOCLDY    76  73  91 S3        30.02R
SHELBY CO ARPT CLOUDY    76  72  87 S6        30.01R
MAXWELL AFB    MOCLDY    75  73  94 S5        30.01S
GREENVILLE     CLOUDY    75  72  90 S3        30.02R
$$

ALZ019-021-028-029-037-038-045>048-271100-
EAST CENTRAL ALABAMA

CITY           SKY/WX    TMP DP  RH WIND       PRES   REMARKS
ANNISTON       CLOUDY    76  72  87 CALM      30.03R
ALEXANDER CITY CLOUDY    75  75 100 S5        30.03S
AUBURN         CLOUDY    74  73  97 S8        30.06R
$$

ALZ051>064-271100-
SOUTHWEST ALABAMA

CITY           SKY/WX    TMP DP  RH WIND       PRES   REMARKS
MOBILE         PTCLDY    74  72  93 S5        30.01R
BROOKLEY FIELD CLEAR     75  74  96 CALM      30.02R
EVERGREEN      PTCLDY    73  72  96 CALM      30.02R
$$

ALZ049-050-065>069-271100-
SOUTHEAST ALABAMA

CITY           SKY/WX    TMP DP  RH WIND       PRES   REMARKS
DOTHAN         CLEAR     74  73  97 SW3       30.07S
OZARK          CLEAR     73  73 100 CALM      30.03R
TROY           CLEAR     73  73 100 CALM      30.04R
EUFAULA        FAIR      73  71  93 CALM      30.02S
$$



USA.gov is the U.S. government's official web portal to all federal, state and local government web resources and services.